FW9514 Weather Reports


time (UTC)temp
F
wind
direction
speed
knots
gust
knots
rain 1hr
in
rain 24hr
in
rain mn
in
humidity
%
barometer
mb
20220627204518 80 0.0 0.0 0.00 0.00 0.00 54 1016.0
20220627204018 80 0.0 0.0 0.00 0.00 0.00 55 1016.1
20220627203518 80 0.0 0.0 0.00 0.00 0.00 55 1016.1
20220627203018 80 0.0 0.0 0.00 0.00 0.00 55 1016.1
20220627202518 80 0.0 0.0 0.00 0.00 0.00 54 1016.0
20220627202018 80 0.0 0.0 0.00 0.00 0.00 54 1016.1
20220627201518 80 0.0 0.0 0.00 0.00 0.00 55 1016.0
20220627201019 81 0.0 0.0 0.00 0.00 0.00 56 1016.0
20220627200518 81 0.0 0.0 0.00 0.00 0.00 59 1016.0
20220627200018 81 0.0 0.0 0.00 0.00 0.00 55 1016.0
20220627195518 81 0.0 1.7 0.00 0.00 0.00 55 1016.0
20220627195018 81 315 0.9 4.3 0.00 0.00 0.00 57 1015.9
20220627194519 81 315 1.7 4.3 0.00 0.00 0.00 55 1015.9
20220627194018 81 315 0.9 4.3 0.00 0.00 0.00 57 1015.9
20220627193518 81 0.0 0.0 0.00 0.00 0.00 57 1015.8
20220627193018 81 315 0.9 3.5 0.00 0.00 0.00 59 1015.8
20220627192518 80 315 1.7 3.5 0.00 0.00 0.00 59 1015.7
20220627192018 80 0.0 0.9 0.00 0.00 0.00 61 1015.7
20220627191518 80 0.0 2.6 0.00 0.00 0.00 62 1015.6
20220627191019 80 0.0 0.9 0.00 0.00 0.00 67 1015.6
20220627190518 80 0.0 0.9 0.00 0.00 0.00 69 1015.5
20220627190019 79 0.0 0.0 0.00 0.00 0.00 69 1015.6
20220627185519 79 0.0 0.9 0.00 0.00 0.00 70 1015.6
20220627185019 79 0.0 0.0 0.00 0.00 0.00 73 1015.6
20220627184519 79 0.0 3.5 0.00 0.00 0.00 75 1015.6
20220627184018 80 158 0.9 3.5 0.00 0.00 0.00 77 1015.5
20220627183519 80 0.0 0.9 0.00 0.00 0.00 82 1015.5
20220627183019 81 0.0 0.0 0.00 0.00 0.00 82 1015.6
20220627182518 81 0.0 0.9 0.00 0.00 0.00 81 1015.6
20220627182019 81 0.0 0.9 0.00 0.00 0.00 81 1015.6
20220627181519 81 0.0 0.0 0.00 0.00 0.00 81 1015.5
20220627181018 81 0.0 0.0 0.00 0.00 0.00 80 1015.6
20220627180521 82 0.0 0.0 0.00 0.00 0.00 80 1015.6
20220627180019 82 0.0 0.0 0.00 0.00 0.00 80 1015.5
20220627175519 82 0.0 0.0 0.00 0.00 0.00 79 1015.5
20220627175019 82 0.0 0.0 0.00 0.00 0.00 79 1015.5
20220627174519 82 0.0 0.0 0.00 0.00 0.00 78 1015.5
20220627174023 82 0.0 0.0 0.00 0.00 0.00 78 1015.5
20220627173510 82 0.0 0.0 0.00 0.00 0.00 78 1015.5
20220627172018 83 0.0 0.0 0.00 0.00 0.00 76 1015.5
20220627171519 83 0.0 0.0 0.00 0.00 0.00 76 1015.5
20220627171018 83 0.0 0.0 0.00 0.00 0.00 75 1015.5
20220627170947 83 0.0 0.0 0.00 0.00 0.00 75 1015.5